FW8071 Weather Reports


Display with metric or nautical units.
time (UTC)temp
F
wind
direction
speed
MPH
gust
MPH
rain 1hr
in
rain 24hr
in
rain mn
in
humidity
%
barometer
mb
20260504081945 48 286 2.0 2.0 0.00 0.00 0.00 77 1006.7
20260504081442 48 295 2.0 2.0 0.00 0.00 0.00 77 1006.9
20260504080937 48 295 2.0 2.0 0.00 0.00 0.00 77 1007.2
20260504080434 48 243 4.0 5.0 0.00 0.00 0.00 77 1007.0
20260504070402 48 240 5.0 6.0 0.00 0.00 0.00 75 1006.9
20260504050749 49 223 8.0 10.0 0.00 0.00 0.00 61 1007.5
20260504050247 49 278 3.0 6.0 0.00 0.00 0.00 60 1007.4
20260504045744 49 249 7.0 8.0 0.00 0.00 0.00 59 1007.7
20260504045239 49 290 5.0 6.0 0.00 0.00 0.00 59 1007.5
20260504044737 49 292 4.0 5.0 0.00 0.00 0.00 59 1007.6
20260504044234 49 273 6.0 7.0 0.00 0.00 0.00 59 1007.7
20260504043731 49 279 4.0 5.0 0.00 0.00 0.00 59 1007.6
20260504043228 49 213 7.0 9.0 0.00 0.00 0.00 58 1007.6
20260504042726 49 261 4.0 5.0 0.00 0.00 0.00 57 1007.5
20260504042222 48 309 3.0 3.0 0.00 0.00 0.00 56 1007.7
20260504041718 48 276 2.0 2.0 0.00 0.00 0.00 55 1007.7
20260504041214 48 290 5.0 6.0 0.00 0.00 0.00 53 1007.7
20260504040710 48 266 5.0 7.0 0.00 0.00 0.00 52 1007.6
20260504040208 47 266 5.0 7.0 0.00 0.00 0.00 52 1007.6
20260504035704 47 252 4.0 7.0 0.00 0.00 0.00 52 1007.5
20260504035202 47 245 4.0 6.0 0.00 0.00 0.00 52 1007.6
20260504034659 47 274 3.0 3.0 0.00 0.00 0.00 52 1007.5
20260504034155 46 286 4.0 6.0 0.00 0.00 0.00 52 1007.8
20260504033653 46 246 3.0 3.0 0.00 0.00 0.00 53 1008.0
20260504033150 45 308 3.0 3.0 0.00 0.00 0.00 53 1007.7
20260504032647 45 299 3.0 3.0 0.00 0.00 0.00 53 1007.7
20260504032144 45 310 2.0 2.0 0.00 0.00 0.00 53 1007.9
20260504031641 45 275 3.0 5.0 0.00 0.00 0.00 53 1007.9
20260504031138 45 312 1.0 2.0 0.00 0.00 0.00 53 1007.9
20260504030634 45 285 2.0 3.0 0.00 0.00 0.00 53 1007.9
20260504030131 45 309 2.0 2.0 0.00 0.00 0.00 53 1007.9
20260504025628 44 303 3.0 3.0 0.00 0.00 0.00 53 1007.7
20260504025125 44 295 2.0 2.0 0.00 0.00 0.00 53 1007.7
20260504024622 44 253 3.0 3.0 0.00 0.00 0.00 53 1007.7
20260504024118 44 253 3.0 3.0 0.00 0.00 0.00 53 1007.8
20260504023615 44 290 3.0 3.0 0.00 0.00 0.00 53 1007.9
20260504023111 44 286 2.0 2.0 0.00 0.00 0.00 52 1008.2
20260504022608 44 302 2.0 2.0 0.00 0.00 0.00 53 1008.2
20260504022103 44 316 1.0 1.0 0.00 0.00 0.00 53 1008.1
20260504021602 45 322 1.0 1.0 0.00 0.00 0.00 53 1008.2
20260504021058 45 315 2.0 2.0 0.00 0.00 0.00 52 1008.1
20260504020555 45 315 1.0 2.0 0.00 0.00 0.00 52 1008.4
20260504020051 45 311 1.0 2.0 0.00 0.00 0.00 51 1008.3
20260504015548 45 310 2.0 2.0 0.00 0.00 0.00 52 1008.4
20260504015044 45 315 1.0 2.0 0.00 0.00 0.00 52 1008.1
20260504014540 45 324 1.0 1.0 0.00 0.00 0.00 53 1008.3
20260504014038 45 321 1.0 1.0 0.00 0.00 0.00 51 1008.2
20260504013535 46 320 1.0 1.0 0.00 0.00 0.00 52 1008.4
20260504013032 46 314 1.0 2.0 0.00 0.00 0.00 51 1008.4
20260504012530 46 317 1.0 1.0 0.00 0.00 0.00 50 1008.3
20260504012027 47 277 2.0 3.0 0.00 0.00 0.00 50 1008.4
20260504011524 47 310 1.0 2.0 0.00 0.00 0.00 49 1008.5
20260504011020 47 302 2.0 2.0 0.00 0.00 0.00 49 1008.3
20260504010515 47 254 4.0 6.0 0.00 0.00 0.00 50 1008.3
20260504010012 46 305 2.0 2.0 0.00 0.00 0.00 52 1008.3
20260504005509 46 303 2.0 2.0 0.00 0.00 0.00 52 1008.2
20260504005006 45 312 1.0 2.0 0.00 0.00 0.00 56 1008.3
20260504004504 45 332 1.0 1.0 0.00 0.00 0.00 60 1008.2
20260504004000 45 333 0.0 0.0 0.00 0.00 0.00 59 1008.1
20260504003456 45 333 0.0 1.0 0.00 0.00 0.00 59 1008.2
20260504002954 46 333 0.0 0.0 0.00 0.00 0.00 57 1008.0
20260504002450 47 333 1.0 1.0 0.00 0.00 0.00 55 1008.0
20260504001948 47 333 1.0 1.0 0.00 0.00 0.00 54 1008.1
20260504001445 47 333 0.0 1.0 0.00 0.00 0.00 54 1008.1
20260504000942 48 333 0.0 0.0 0.00 0.00 0.00 52 1007.9
20260504000439 49 332 0.0 0.0 0.00 0.00 0.00 48 1007.9
20260503235936 50 323 1.0 1.0 0.00 0.00 0.00 48 1008.1
20260503235434 50 329 0.0 1.0 0.00 0.00 0.00 47 1008.0
20260503234931 51 314 1.0 1.0 0.00 0.00 0.00 44 1007.7
20260503234429 51 312 1.0 2.0 0.00 0.00 0.00 44 1007.8
20260503233926 51 317 1.0 2.0 0.00 0.00 0.00 43 1007.8
20260503233423 53 320 1.0 2.0 0.00 0.00 0.00 41 1007.9
20260503232919 53 328 1.0 1.0 0.00 0.00 0.00 40 1007.9
20260503232416 53 335 1.0 1.0 0.00 0.00 0.00 40 1007.7
20260503231914 53 332 1.0 1.0 0.00 0.00 0.00 39 1007.8
20260503231411 53 284 2.0 2.0 0.00 0.00 0.00 39 1007.7
20260503230907 53 318 2.0 2.0 0.00 0.00 0.00 39 1007.9
20260503230404 53 305 3.0 3.0 0.00 0.00 0.00 38 1007.8
20260503225902 53 260 5.0 6.0 0.00 0.00 0.00 38 1007.8
20260503225357 54 293 6.0 8.0 0.00 0.00 0.00 38 1007.8
20260503224854 54 313 3.0 3.0 0.00 0.00 0.00 37 1007.6
20260503224351 54 308 3.0 5.0 0.00 0.00 0.00 38 1007.8
20260503223849 55 301 3.0 5.0 0.00 0.00 0.00 37 1007.8
20260503223347 55 310 2.0 3.0 0.00 0.00 0.00 37 1007.9
20260503222842 54 319 3.0 5.0 0.00 0.00 0.00 37 1007.5
20260503222341 54 278 5.0 6.0 0.00 0.00 0.00 37 1007.6
20260503221838 54 318 3.0 3.0 0.00 0.00 0.00 38 1008.0
20260503221337 54 320 4.0 5.0 0.00 0.00 0.00 37 1007.8
20260503220832 53 316 3.0 3.0 0.00 0.00 0.00 38 1007.7
20260503220329 53 314 2.0 3.0 0.00 0.00 0.00 37 1007.9
20260503215826 54 347 3.0 3.0 0.00 0.00 0.00 38 1007.9
20260503215323 54 336 1.0 2.0 0.00 0.00 0.00 38 1007.8
20260503214821 55 268 3.0 5.0 0.00 0.00 0.00 38 1007.8
20260503214318 54 340 1.0 1.0 0.00 0.00 0.00 40 1007.9
20260503213815 54 339 1.0 2.0 0.00 0.00 0.00 40 1007.8
20260503213313 53 311 3.0 3.0 0.00 0.00 0.00 39 1008.0
20260503212810 53 327 4.0 6.0 0.00 0.00 0.00 39 1007.8
20260503212308 54 342 3.0 5.0 0.00 0.00 0.00 38 1007.8
20260503211805 53 335 3.0 3.0 0.00 0.00 0.00 37 1007.8
20260503211302 53 297 3.0 3.0 0.00 0.00 0.00 37 1007.8
20260503210801 54 318 4.0 5.0 0.00 0.00 0.00 37 1007.7
20260503210259 54 324 2.0 2.0 0.00 0.00 0.00 38 1007.7
20260503205754 54 299 6.0 9.0 0.00 0.00 0.00 36 1007.6
20260503205251 54 314 2.0 3.0 0.00 0.00 0.00 39 1008.0
20260503204747 54 305 5.0 7.0 0.00 0.00 0.00 38 1007.9
20260503204245 54 312 3.0 5.0 0.00 0.00 0.00 37 1008.1
20260503203742 54 308 4.0 5.0 0.00 0.00 0.00 37 1007.8
20260503203240 54 333 2.0 3.0 0.00 0.00 0.00 37 1007.8
20260503202737 54 327 5.0 6.0 0.00 0.00 0.00 37 1007.8
20260503202234 55 339 1.0 1.0 0.00 0.00 0.00 37 1007.8
20260503201732 53 301 3.0 7.0 0.00 0.00 0.00 38 1007.8
20260503201229 54 297 4.0 6.0 0.00 0.00 0.00 37 1008.0
20260503200726 56 330 3.0 5.0 0.00 0.00 0.00 37 1008.0
20260503200222 55 323 1.0 2.0 0.00 0.00 0.00 37 1007.8
20260503195719 55 287 7.0 8.0 0.00 0.00 0.00 36 1008.0
20260503195216 53 18 4.0 6.0 0.00 0.00 0.00 39 1008.2
20260503194713 52 330 3.0 3.0 0.00 0.00 0.00 39 1008.3
20260503194209 52 317 4.0 5.0 0.00 0.00 0.00 39 1008.2
20260503193705 53 308 3.0 6.0 0.00 0.00 0.00 40 1008.5
20260503193201 53 317 3.0 6.0 0.00 0.00 0.00 39 1008.3
20260503192657 52 321 3.0 3.0 0.00 0.00 0.00 41 1008.6
20260503192152 53 328 4.0 5.0 0.00 0.00 0.00 40 1008.5
20260503191649 53 332 2.0 3.0 0.00 0.00 0.00 41 1008.5
20260503191147 54 309 3.0 3.0 0.00 0.00 0.00 40 1008.3
20260503190643 53 10 3.0 5.0 0.00 0.00 0.00 39 1008.4
20260503190140 52 316 2.0 3.0 0.00 0.00 0.00 42 1008.6
20260503185637 51 334 5.0 6.0 0.00 0.00 0.00 43 1008.8
20260503185132 51 310 6.0 8.0 0.00 0.00 0.00 43 1009.0
20260503184627 51 304 3.0 3.0 0.00 0.00 0.00 44 1008.7
20260503184124 51 284 6.0 7.0 0.00 0.00 0.00 43 1008.9
20260503183621 51 297 3.0 3.0 0.00 0.00 0.00 45 1009.0
20260503183118 51 295 5.0 6.0 0.00 0.00 0.00 44 1008.8
20260503182616 51 244 4.0 8.0 0.00 0.00 0.00 46 1009.2
20260503182114 50 288 4.0 5.0 0.00 0.00 0.00 48 1009.3
20260503181611 50 340 4.0 6.0 0.00 0.00 0.00 48 1009.1
20260503181108 50 296 2.0 5.0 0.00 0.00 0.00 47 1009.2
20260503180605 51 309 5.0 7.0 0.00 0.00 0.00 46 1009.0
20260503180103 51 308 3.0 3.0 0.00 0.00 0.00 46 1009.3
20260503175559 51 332 1.0 1.0 0.00 0.00 0.00 46 1009.2
20260503175056 51 2 3.0 6.0 0.00 0.00 0.00 46 1009.4
20260503174553 50 288 2.0 5.0 0.00 0.00 0.00 46 1009.3
20260503174050 51 284 3.0 5.0 0.00 0.00 0.00 46 1009.2
20260503173545 50 3 7.0 8.0 0.00 0.00 0.00 45 1009.3
20260503173041 51 328 3.0 5.0 0.00 0.00 0.00 44 1009.3
20260503172539 50 290 6.0 8.0 0.00 0.00 0.00 44 1009.5
20260503172036 50 287 5.0 6.0 0.00 0.00 0.00 45 1009.3
20260503171532 51 323 5.0 7.0 0.00 0.00 0.00 45 1009.3
20260503171030 51 345 1.0 2.0 0.00 0.00 0.00 46 1009.3
20260503170526 51 325 2.0 3.0 0.00 0.00 0.00 46 1009.4
20260503150918 49 340 1.0 1.0 0.00 0.00 0.00 50 1010.6
20260503150415 49 289 3.0 5.0 0.00 0.00 0.00 47 1010.7
20260503131308 47 58 2.0 6.0 0.00 0.00 0.00 62 1011.4
20260503130806 47 338 2.0 2.0 0.00 0.00 0.00 64 1011.3
20260503130303 47 347 3.0 3.0 0.00 0.00 0.00 65 1011.1
20260503110657 41 333 1.0 2.0 0.00 0.00 0.00 82 1011.1
20260503110154 41 319 2.0 3.0 0.00 0.00 0.00 82 1011.2
20260503100115 41 310 4.0 5.0 0.00 0.00 0.00 81 1010.6